TimePST,TemperatureF,Dew PointF,Humidity,Sea Level PressureIn,VisibilityMPH,Wind Direction,Wind SpeedMPH,Gust SpeedMPH,PrecipitationIn,Events,Conditions,WindDirDegrees,DateUTC
12:15 AM,42.8,19.4,39,30.24,10.0,East,12.7,-,N/A,,Clear,100,2012-12-10 08:15:00
12:35 AM,46.4,19.4,34,30.24,10.0,East,11.5,-,N/A,,Clear,100,2012-12-10 08:35:00
12:55 AM,44.6,19.4,37,30.23,10.0,East,11.5,-,N/A,,Clear,100,2012-12-10 08:55:00
1:15 AM,44.6,19.4,37,30.23,-9999.0,East,11.5,-,N/A,,Unknown,100,2012-12-10 09:15:00
1:55 AM,-9999,-9999,N/A,-9999,-9999.0,North,-9999.0,-,N/A,,Unknown,0,2012-12-10 09:55:00
2:15 AM,46.4,19.4,34,30.24,10.0,East,10.4,-,N/A,,Unknown,90,2012-12-10 10:15:00
2:35 AM,-9999,-9999,N/A,-9999,-9999.0,North,-9999.0,-,N/A,,Unknown,0,2012-12-10 10:35:00
2:55 AM,-9999,-9999,N/A,-9999,-9999.0,North,-9999.0,-,N/A,,Unknown,0,2012-12-10 10:55:00
3:15 AM,-9999,-9999,N/A,-9999,-9999.0,North,-9999.0,-,N/A,,Unknown,0,2012-12-10 11:15:00
3:35 AM,-9999,-9999,N/A,-9999,-9999.0,North,-9999.0,-,N/A,,Unknown,0,2012-12-10 11:35:00
3:55 AM,-9999,-9999,N/A,-9999,-9999.0,North,-9999.0,-,N/A,,Unknown,0,2012-12-10 11:55:00
4:15 AM,-9999,-9999,N/A,-9999,-9999.0,North,-9999.0,-,N/A,,Unknown,0,2012-12-10 12:15:00
4:35 AM,-9999,-9999,N/A,-9999,-9999.0,North,-9999.0,-,N/A,,Unknown,0,2012-12-10 12:35:00
4:55 AM,-9999,-9999,N/A,-9999,-9999.0,North,-9999.0,-,N/A,,Unknown,0,2012-12-10 12:55:00
5:15 AM,-9999,-9999,N/A,-9999,-9999.0,North,-9999.0,-,N/A,,Unknown,0,2012-12-10 13:15:00
5:35 AM,-9999,-9999,N/A,-9999,-9999.0,North,-9999.0,-,N/A,,Unknown,0,2012-12-10 13:35:00
5:55 AM,-9999,-9999,N/A,-9999,-9999.0,North,-9999.0,-,N/A,,Unknown,0,2012-12-10 13:55:00
6:15 AM,-9999,-9999,N/A,-9999,-9999.0,North,-9999.0,-,N/A,,Unknown,0,2012-12-10 14:15:00
6:35 AM,-9999,-9999,N/A,-9999,-9999.0,North,-9999.0,-,N/A,,Unknown,0,2012-12-10 14:35:00
7:35 AM,41.0,19.4,42,30.23,10.0,South,3.5,-,N/A,,Clear,180,2012-12-10 15:35:00
7:55 AM,39.2,21.2,49,30.23,10.0,SSE,9.2,-,N/A,,Clear,160,2012-12-10 15:55:00
8:15 AM,41.0,21.2,45,30.24,9.0,SE,10.4,-,N/A,,Clear,140,2012-12-10 16:15:00
8:55 AM,48.2,21.2,34,30.25,10.0,ESE,9.2,-,N/A,,Clear,120,2012-12-10 16:55:00
9:15 AM,53.6,19.4,26,30.25,8.0,ESE,9.2,-,N/A,,Clear,120,2012-12-10 17:15:00
9:35 AM,53.6,19.4,26,30.25,10.0,ESE,9.2,-,N/A,,Clear,110,2012-12-10 17:35:00
9:55 AM,55.4,19.4,25,30.25,10.0,ESE,6.9,-,N/A,,Clear,110,2012-12-10 17:55:00
10:15 AM,57.2,21.2,25,30.25,10.0,ESE,11.5,-,N/A,,Clear,110,2012-12-10 18:15:00
10:35 AM,57.2,21.2,25,30.25,9.0,ESE,10.4,-,N/A,,Clear,110,2012-12-10 18:35:00
10:55 AM,59.0,21.2,23,30.25,10.0,ESE,9.2,-,N/A,,Clear,110,2012-12-10 18:55:00
11:15 AM,59.0,21.2,23,30.25,10.0,East,11.5,-,N/A,,Clear,90,2012-12-10 19:15:00
11:55 AM,59.0,21.2,23,30.23,10.0,East,12.7,17.3,N/A,,Clear,100,2012-12-10 19:55:00
12:15 PM,59.0,21.2,23,30.22,8.0,ESE,10.4,16.1,N/A,,Clear,120,2012-12-10 20:15:00
12:35 PM,59.0,21.2,23,30.21,10.0,East,9.2,-,N/A,,Clear,100,2012-12-10 20:35:00
12:55 PM,59.0,21.2,23,30.20,9.0,ESE,10.4,-,N/A,,Clear,110,2012-12-10 20:55:00
1:15 PM,59.0,21.2,23,30.20,10.0,East,9.2,-,N/A,,Clear,100,2012-12-10 21:15:00
1:35 PM,60.8,21.2,22,30.19,8.0,East,5.8,-,N/A,,Clear,100,2012-12-10 21:35:00
1:55 PM,60.8,19.4,20,30.18,9.0,SSE,4.6,-,N/A,,Clear,150,2012-12-10 21:55:00
2:15 PM,60.8,19.4,20,30.18,10.0,SSW,3.5,-,N/A,,Clear,200,2012-12-10 22:15:00
2:35 PM,62.6,21.2,20,30.18,9.0,WNW,6.9,-,N/A,,Clear,300,2012-12-10 22:35:00
2:55 PM,62.6,21.2,20,30.17,10.0,WNW,10.4,-,N/A,,Clear,290,2012-12-10 22:55:00
3:15 PM,60.8,23.0,23,30.16,10.0,NW,10.4,-,N/A,,Clear,310,2012-12-10 23:15:00
3:35 PM,59.0,23.0,25,30.16,10.0,NNW,11.5,-,N/A,,Clear,340,2012-12-10 23:35:00
3:55 PM,59.0,23.0,25,30.16,10.0,NNW,10.4,-,N/A,,Clear,330,2012-12-10 23:55:00
4:15 PM,55.4,30.2,38,30.16,10.0,NW,8.1,-,N/A,,Clear,310,2012-12-11 00:15:00
4:35 PM,50.0,28.4,43,30.17,10.0,NW,8.1,-,N/A,,Clear,310,2012-12-11 00:35:00
4:55 PM,48.2,26.6,43,30.17,9.0,WSW,4.6,-,N/A,,Clear,250,2012-12-11 00:55:00
5:15 PM,50.0,26.6,40,30.17,10.0,WSW,5.8,-,N/A,,Clear,250,2012-12-11 01:15:00
5:35 PM,48.2,26.6,43,30.18,10.0,West,3.5,-,N/A,,Clear,270,2012-12-11 01:35:00
5:55 PM,46.4,24.8,43,30.18,10.0,West,3.5,-,N/A,,Clear,280,2012-12-11 01:55:00
6:15 PM,44.6,24.8,46,30.17,9.0,Calm,Calm,-,N/A,,Clear,0,2012-12-11 02:15:00
6:35 PM,46.4,24.8,43,30.18,10.0,Calm,Calm,-,N/A,,Clear,0,2012-12-11 02:35:00
6:55 PM,41.0,23.0,49,30.18,10.0,Calm,Calm,-,N/A,,Clear,0,2012-12-11 02:55:00
7:15 PM,39.2,23.0,52,30.18,10.0,NNW,3.5,-,N/A,,Clear,330,2012-12-11 03:15:00
7:35 PM,39.2,24.8,56,30.18,10.0,SE,6.9,-,N/A,,Clear,130,2012-12-11 03:35:00
7:55 PM,37.4,23.0,56,30.18,10.0,Calm,Calm,-,N/A,,Clear,0,2012-12-11 03:55:00
8:15 PM,37.4,23.0,56,30.18,10.0,SE,4.6,-,N/A,,Clear,130,2012-12-11 04:15:00
8:35 PM,37.4,23.0,56,30.18,10.0,Calm,Calm,-,N/A,,Clear,0,2012-12-11 04:35:00
8:55 PM,35.6,21.2,56,30.18,10.0,ESE,5.8,-,N/A,,Clear,110,2012-12-11 04:55:00
9:15 PM,37.4,21.2,52,30.19,10.0,East,3.5,-,N/A,,Clear,90,2012-12-11 05:15:00
9:55 PM,33.8,21.2,60,30.18,10.0,Calm,Calm,-,N/A,,Clear,0,2012-12-11 05:55:00
10:15 PM,32.0,19.4,60,30.17,10.0,SE,5.8,-,N/A,,Clear,140,2012-12-11 06:15:00
10:35 PM,35.6,19.4,52,30.17,10.0,SE,4.6,-,N/A,,Clear,130,2012-12-11 06:35:00
10:55 PM,32.0,19.4,60,30.17,10.0,East,3.5,-,N/A,,Clear,80,2012-12-11 06:55:00
11:15 PM,32.0,19.4,60,30.17,10.0,SE,4.6,-,N/A,,Clear,130,2012-12-11 07:15:00
11:35 PM,32.0,19.4,60,30.17,10.0,East,3.5,-,N/A,,Clear,80,2012-12-11 07:35:00
11:55 PM,32.0,19.4,60,30.17,10.0,Calm,Calm,-,N/A,,Clear,0,2012-12-11 07:55:00